,,,PA_Meas_PMT16A,,PR_Meas_QMR101_102,,RH_Meas_QMH101,,SR_Meas_QMS101,,TA_Meas_QMH101,,GenWind,,GenWind,
date,time,status,PA,status,PR,status,RH,status,SR,status,TA,status,DirAvg,status,SpdAvg,
2011-01-30, 00:00:05,VALID,1001.47,VALID,0,VALID,92.8448,VALID,0,VALID,21.77,VALID,175,VALID,1.4207,
2011-01-30, 00:01:05,VALID,1001.45,VALID,0,VALID,92.8677,VALID,0,VALID,21.7895,VALID,167,VALID,1.27891,
2011-01-30, 00:02:05,VALID,1001.42,VALID,0,VALID,92.8677,VALID,0,VALID,21.809,VALID,172,VALID,1.42539,
2011-01-30, 00:03:05,VALID,1001.4,VALID,0,VALID,92.8906,VALID,0,VALID,21.7895,VALID,170,VALID,1.81602,
2011-01-30, 00:04:05,VALID,1001.43,VALID,0,VALID,92.8906,VALID,0,VALID,21.809,VALID,176,VALID,1.71641,
2011-01-30, 00:05:05,VALID,1001.41,VALID,0,VALID,92.8906,VALID,0,VALID,21.809,VALID,165,VALID,1.72148,
2011-01-30, 00:06:05,VALID,1001.4,VALID,0,VALID,92.8906,VALID,0,VALID,21.809,VALID,173,VALID,1.71484,
2011-01-30, 00:07:05,VALID,1001.4,VALID,0,VALID,92.9135,VALID,0,VALID,21.809,VALID,166,VALID,1.21406,
2011-01-30, 00:08:05,VALID,1001.38,VALID,0,VALID,92.9135,VALID,0,VALID,21.8285,VALID,168,VALID,1.15352,
2011-01-30, 00:09:05,VALID,1001.37,VALID,0,VALID,92.9288,VALID,0,VALID,21.809,VALID,160,VALID,1.31602,
2011-01-30, 00:10:05,VALID,1001.35,VALID,0,VALID,92.944,VALID,0,VALID,21.809,VALID,156,VALID,1.22227,
2011-01-30, 00:11:05,VALID,1001.36,VALID,0,VALID,92.9364,VALID,0,VALID,21.8285,VALID,176,VALID,0.920313,
2011-01-30, 00:12:05,VALID,1001.33,VALID,0,VALID,92.9288,VALID,0,VALID,21.809,VALID,165,VALID,1.01484,
2011-01-30, 00:13:05,VALID,1001.3,VALID,0.5,VALID,92.9517,VALID,0,VALID,21.809,VALID,164,VALID,1.0625,
2011-01-30, 00:14:05,VALID,1001.31,VALID,0,VALID,92.944,VALID,0,VALID,21.7895,VALID,164,VALID,0.4875,
2011-01-30, 00:15:05,VALID,1001.32,VALID,0,VALID,92.9517,VALID,0.112286,VALID,21.809,VALID,144,VALID,0.648828,
2011-01-30, 00:16:05,VALID,1001.32,VALID,0,VALID,92.9745,VALID,0,VALID,21.809,VALID,145,VALID,0.567969,
2011-01-30, 00:17:05,VALID,1001.33,VALID,0,VALID,92.9898,VALID,0,VALID,21.7895,VALID,139,VALID,0.716797,
2011-01-30, 00:18:05,VALID,1001.3,VALID,0,VALID,92.9898,VALID,0,VALID,21.77,VALID,132,VALID,0.8125,
2011-01-30, 00:19:05,VALID,1001.32,VALID,0,VALID,92.9898,VALID,0,VALID,21.77,VALID,132,VALID,0.520312,
2011-01-30, 00:20:05,VALID,1001.31,VALID,0,VALID,92.9974,VALID,0,VALID,21.7505,VALID,133,VALID,0.439063,
2011-01-30, 00:21:05,VALID,1001.3,VALID,0,VALID,92.9898,VALID,0,VALID,21.7505,VALID,132,VALID,0.615234,
2011-01-30, 00:22:05,VALID,1001.28,VALID,0,VALID,92.9898,VALID,0,VALID,21.7505,VALID,132,VALID,0.610156,
2011-01-30, 00:23:05,VALID,1001.25,VALID,0,VALID,92.9745,VALID,0,VALID,21.7505,VALID,132,VALID,0.782031,
2011-01-30, 00:24:05,VALID,1001.27,VALID,0,VALID,92.9745,VALID,0,VALID,21.731,VALID,132,VALID,0.826172,
2011-01-30, 00:25:05,VALID,1001.21,VALID,0,VALID,93.0051,VALID,0,VALID,21.7098,VALID,132,VALID,0.6625,
2011-01-30, 00:26:05,VALID,1001.19,VALID,0,VALID,92.9898,VALID,0.112286,VALID,21.7505,VALID,135,VALID,1.00469,
2011-01-30, 00:27:05,VALID,1001.19,VALID,0,VALID,92.9974,VALID,0,VALID,21.731,VALID,136,VALID,0.70625,
2011-01-30, 00:28:05,VALID,1001.17,VALID,0,VALID,92.9898,VALID,0,VALID,21.7521,VALID,136,VALID,0.503906,
2011-01-30, 00:29:05,VALID,1001.19,VALID,0,VALID,92.9898,VALID,0,VALID,21.7716,VALID,136,VALID,0.419531,
2011-01-30, 00:30:05,VALID,1001.2,VALID,0,VALID,93.0051,VALID,0,VALID,21.7716,VALID,136,VALID,0.317969,
2011-01-30, 00:31:05,VALID,1001.19,VALID,0,VALID,93.0203,VALID,0,VALID,21.7716,VALID,136,VALID,0.202734,
2011-01-30, 00:32:05,VALID,1001.14,VALID,0,VALID,93.0356,VALID,0,VALID,21.7716,VALID,136,VALID,0.374609,
2011-01-30, 00:33:05,VALID,1001.15,VALID,0,VALID,93.0203,VALID,0,VALID,21.7716,VALID,136,VALID,0.604297,
2011-01-30, 00:34:05,VALID,1001.13,VALID,0,VALID,93.0203,VALID,0,VALID,21.7115,VALID,169,VALID,0.789844,
2011-01-30, 00:35:05,VALID,1001.11,VALID,0,VALID,93.0203,VALID,0,VALID,21.7326,VALID,169,VALID,0.625391,
2011-01-30, 00:36:05,VALID,1001.07,VALID,0,VALID,93.028,VALID,0,VALID,21.7521,VALID,169,VALID,0.623828,
2011-01-30, 00:37:05,VALID,1001.03,VALID,0,VALID,93.028,VALID,0,VALID,21.731,VALID,158,VALID,0.792578,
2011-01-30, 00:38:05,VALID,1001.03,VALID,0,VALID,93.0051,VALID,0,VALID,21.731,VALID,158,VALID,0.819531,
2011-01-30, 00:39:05,VALID,1001.02,VALID,0,VALID,93.0051,VALID,0,VALID,21.731,VALID,158,VALID,0.843359,
2011-01-30, 00:40:05,VALID,1001.02,VALID,0,VALID,92.9745,VALID,0,VALID,21.731,VALID,158,VALID,0.912109,
2011-01-30, 00:41:05,VALID,1001,VALID,0,VALID,92.9669,VALID,0,VALID,21.731,VALID,158,VALID,0.759375,
2011-01-30, 00:42:05,VALID,1001.04,VALID,0,VALID,92.9593,VALID,0,VALID,21.7505,VALID,158,VALID,0.607031,
2011-01-30, 00:43:05,VALID,1001.01,VALID,0,VALID,92.9593,VALID,0,VALID,21.7505,VALID,158,VALID,0.3375,
2011-01-30, 00:44:05,VALID,1000.99,VALID,0,VALID,92.944,VALID,0,VALID,21.7505,VALID,158,VALID,0.0125,
2011-01-30, 00:45:05,VALID,1000.98,VALID,0,VALID,92.9364,VALID,0,VALID,21.731,VALID,158,VALID,0.178125,
2011-01-30, 00:46:05,VALID,1000.95,VALID,0,VALID,92.9288,VALID,0,VALID,21.7505,VALID,158,VALID,0,
2011-01-30, 00:47:05,VALID,1000.96,VALID,0.5,VALID,92.9288,VALID,0,VALID,21.731,VALID,158,VALID,0.292578,
2011-01-30, 00:48:05,VALID,1000.91,VALID,0,VALID,92.9364,VALID,0,VALID,21.7115,VALID,158,VALID,0.176563,
2011-01-30, 00:49:05,VALID,1000.9,VALID,0,VALID,92.944,VALID,0,VALID,21.731,VALID,158,VALID,0.241797,
2011-01-30, 00:50:05,VALID,1000.89,VALID,0,VALID,92.9364,VALID,0,VALID,21.7115,VALID,158,VALID,0.399219,
2011-01-30, 00:51:05,VALID,1000.87,VALID,0,VALID,92.944,VALID,0,VALID,21.7521,VALID,158,VALID,0.242578,
2011-01-30, 00:52:05,VALID,1000.89,VALID,0,VALID,92.9364,VALID,0,VALID,21.731,VALID,150,VALID,0.541016,
2011-01-30, 00:53:05,VALID,1000.87,VALID,0,VALID,92.9593,VALID,0,VALID,21.7505,VALID,96,VALID,0.684375,
2011-01-30, 00:54:05,VALID,1000.84,VALID,0,VALID,92.9593,VALID,0,VALID,21.731,VALID,96,VALID,0.776172,
2011-01-30, 00:55:05,VALID,1000.86,VALID,0,VALID,92.9517,VALID,0,VALID,21.77,VALID,53,VALID,0.680078,
2011-01-30, 00:56:05,VALID,1000.81,VALID,0,VALID,92.944,VALID,0,VALID,21.8106,VALID,53,VALID,0.870703,
2011-01-30, 00:57:05,VALID,1000.8,VALID,0,VALID,92.9669,VALID,0,VALID,21.7911,VALID,53,VALID,0.8375,
2011-01-30, 00:58:05,VALID,1000.79,VALID,0,VALID,92.9517,VALID,0,VALID,21.809,VALID,53,VALID,0.599609,
2011-01-30, 00:59:05,VALID,1000.79,VALID,0,VALID,92.9593,VALID,0,VALID,21.7895,VALID,53,VALID,0.391016,
2011-01-30, 01:00:05,VALID,1000.79,VALID,0,VALID,92.9593,VALID,0,VALID,21.7911,VALID,53,VALID,0.645312,
2011-01-30, 01:01:05,VALID,1000.78,VALID,0,VALID,92.9822,VALID,0,VALID,21.7716,VALID,53,VALID,0.837109,
2011-01-30, 01:02:05,VALID,1000.77,VALID,0,VALID,92.9669,VALID,0,VALID,21.7911,VALID,53,VALID,0.776172,
2011-01-30, 01:03:05,VALID,1000.75,VALID,0,VALID,92.9669,VALID,0,VALID,21.7911,VALID,53,VALID,0.936328,
2011-01-30, 01:04:05,VALID,1000.75,VALID,0.5,VALID,92.9898,VALID,0,VALID,21.809,VALID,53,VALID,0.768359,
2011-01-30, 01:05:05,VALID,1000.72,VALID,0,VALID,92.9822,VALID,0,VALID,21.809,VALID,53,VALID,0.992188,
2011-01-30, 01:06:05,VALID,1000.71,VALID,0,VALID,92.9898,VALID,0,VALID,21.8285,VALID,53,VALID,0.841016,
2011-01-30, 01:07:05,VALID,1000.69,VALID,0,VALID,92.9822,VALID,0,VALID,21.8496,VALID,62,VALID,1.10859,
2011-01-30, 01:08:05,VALID,1000.67,VALID,0,VALID,93.0127,VALID,0,VALID,21.8496,VALID,65,VALID,1.02617,
2011-01-30, 01:09:04,VALID,1000.69,VALID,0,VALID,93.0051,VALID,0,VALID,21.8692,VALID,65,VALID,0.758203,
2011-01-30, 01:10:04,VALID,1000.66,VALID,0,VALID,93.0127,VALID,0,VALID,21.8887,VALID,65,VALID,1,
2011-01-30, 01:11:04,VALID,1000.66,VALID,0,VALID,93.0203,VALID,0,VALID,21.8887,VALID,65,VALID,0.771094,
2011-01-30, 01:12:04,VALID,1000.64,VALID,0,VALID,93.0051,VALID,0,VALID,21.8887,VALID,65,VALID,0.790234,
2011-01-30, 01:13:04,VALID,1000.61,VALID,0,VALID,93.0432,VALID,0,VALID,21.8675,VALID,65,VALID,0.573828,
2011-01-30, 01:14:04,VALID,1000.59,VALID,0,VALID,93.0356,VALID,0,VALID,21.8675,VALID,65,VALID,0.810156,
2011-01-30, 01:15:04,VALID,1000.58,VALID,0,VALID,93.0356,VALID,0,VALID,21.8675,VALID,65,VALID,0.978516,
2011-01-30, 01:16:04,VALID,1000.56,VALID,0,VALID,93.0432,VALID,0,VALID,21.8675,VALID,65,VALID,0.824609,
2011-01-30, 01:17:04,VALID,1000.54,VALID,0,VALID,93.0814,VALID,0,VALID,21.8692,VALID,65,VALID,0.620703,
2011-01-30, 01:18:04,VALID,1000.52,VALID,0,VALID,93.0585,VALID,0,VALID,21.8692,VALID,65,VALID,0.881641,
2011-01-30, 01:19:04,VALID,1000.52,VALID,0,VALID,93.0661,VALID,0,VALID,21.8692,VALID,65,VALID,0.757031,
2011-01-30, 01:20:04,VALID,1000.5,VALID,0,VALID,93.089,VALID,0,VALID,21.848,VALID,65,VALID,0.830859,
2011-01-30, 01:21:04,VALID,1000.51,VALID,0,VALID,93.0737,VALID,0,VALID,21.848,VALID,59,VALID,0.746875,
2011-01-30, 01:22:04,VALID,1000.49,VALID,0,VALID,93.0966,VALID,0,VALID,21.887,VALID,53,VALID,0.703906,
2011-01-30, 01:23:04,VALID,1000.48,VALID,0,VALID,93.1043,VALID,0,VALID,21.8675,VALID,53,VALID,0.767969,
2011-01-30, 01:24:04,VALID,1000.49,VALID,0,VALID,93.1195,VALID,0,VALID,21.8887,VALID,53,VALID,0.637109,
2011-01-30, 01:25:04,VALID,1000.48,VALID,0.5,VALID,93.1271,VALID,0,VALID,21.8675,VALID,55,VALID,0.778906,
2011-01-30, 01:26:04,VALID,1000.46,VALID,0,VALID,93.1348,VALID,0,VALID,21.8675,VALID,55,VALID,0.628906,
2011-01-30, 01:27:04,VALID,1000.46,VALID,0,VALID,93.1195,VALID,0,VALID,21.8887,VALID,55,VALID,0.65,
2011-01-30, 01:28:04,VALID,1000.45,VALID,0,VALID,93.15,VALID,0,VALID,21.8675,VALID,55,VALID,1.05508,
2011-01-30, 01:29:04,VALID,1000.44,VALID,0,VALID,93.15,VALID,0,VALID,21.8887,VALID,71,VALID,0.832422,
2011-01-30, 01:30:04,VALID,1000.47,VALID,0,VALID,93.1729,VALID,0,VALID,21.8692,VALID,66,VALID,1.36758,
2011-01-30, 01:31:04,VALID,1000.47,VALID,0,VALID,93.1653,VALID,0,VALID,21.8285,VALID,65,VALID,1.39063,
2011-01-30, 01:32:04,VALID,1000.44,VALID,0,VALID,93.1653,VALID,0,VALID,21.8692,VALID,62,VALID,1.20391,
2011-01-30, 01:33:04,VALID,1000.45,VALID,0,VALID,93.1653,VALID,0,VALID,21.809,VALID,63,VALID,1.30039,
2011-01-30, 01:34:04,VALID,1000.42,VALID,0,VALID,93.1729,VALID,0,VALID,21.8301,VALID,83,VALID,1.075,
2011-01-30, 01:35:04,VALID,1000.39,VALID,0,VALID,93.1653,VALID,0,VALID,21.8285,VALID,83,VALID,0.924609,
2011-01-30, 01:36:04,VALID,1000.35,VALID,0,VALID,93.1805,VALID,0,VALID,21.8106,VALID,83,VALID,0.808984,
2011-01-30, 01:37:04,VALID,1000.37,VALID,0,VALID,93.1729,VALID,0,VALID,21.8301,VALID,83,VALID,0.715625,
2011-01-30, 01:38:04,VALID,1000.35,VALID,0,VALID,93.2111,VALID,0,VALID,21.8106,VALID,84,VALID,0.848047,
2011-01-30, 01:39:04,VALID,1000.32,VALID,0,VALID,93.1805,VALID,0,VALID,21.7911,VALID,84,VALID,0.594922,
2011-01-30, 01:40:04,VALID,1000.33,VALID,0,VALID,93.1958,VALID,0,VALID,21.77,VALID,84,VALID,0.407422,
2011-01-30, 01:41:04,VALID,1000.31,VALID,0.5,VALID,93.1958,VALID,0,VALID,21.77,VALID,84,VALID,0.553516,
2011-01-30, 01:42:04,VALID,1000.29,VALID,0,VALID,93.1882,VALID,0,VALID,21.7911,VALID,84,VALID,0.398828,
2011-01-30, 01:43:04,VALID,1000.29,VALID,0,VALID,93.2034,VALID,0,VALID,21.77,VALID,84,VALID,0.526953,
2011-01-30, 01:44:04,VALID,1000.28,VALID,0,VALID,93.2111,VALID,0,VALID,21.7505,VALID,84,VALID,0.426172,
2011-01-30, 01:45:04,VALID,1000.25,VALID,0,VALID,93.2111,VALID,0,VALID,21.7911,VALID,84,VALID,0.708203,
2011-01-30, 01:46:04,VALID,1000.26,VALID,0,VALID,93.2111,VALID,0,VALID,21.77,VALID,84,VALID,0.772266,
2011-01-30, 01:47:04,VALID,1000.26,VALID,0,VALID,93.2263,VALID,0,VALID,21.7505,VALID,84,VALID,0.872656,
2011-01-30, 01:48:04,VALID,1000.25,VALID,0,VALID,93.2263,VALID,0,VALID,21.7716,VALID,84,VALID,1.03281,
2011-01-30, 01:49:04,VALID,1000.18,VALID,0,VALID,93.2568,VALID,0,VALID,21.7716,VALID,85,VALID,0.731641,
2011-01-30, 01:50:04,VALID,1000.21,VALID,0,VALID,93.234,VALID,0,VALID,21.7895,VALID,85,VALID,0.629297,
2011-01-30, 01:51:04,VALID,1000.17,VALID,0,VALID,93.2416,VALID,0,VALID,21.77,VALID,85,VALID,0.822656,
2011-01-30, 01:52:04,VALID,1000.2,VALID,0,VALID,93.2492,VALID,0,VALID,21.7716,VALID,85,VALID,0.508594,
2011-01-30, 01:53:04,VALID,1000.2,VALID,0,VALID,93.2568,VALID,0,VALID,21.8106,VALID,85,VALID,0.602344,
2011-01-30, 01:54:04,VALID,1000.16,VALID,0,VALID,93.2568,VALID,0,VALID,21.7911,VALID,85,VALID,0.278906,
2011-01-30, 01:55:04,VALID,1000.14,VALID,0.5,VALID,93.2797,VALID,0,VALID,21.7895,VALID,85,VALID,0.501562,
2011-01-30, 01:56:04,VALID,1000.15,VALID,0,VALID,93.2721,VALID,0,VALID,21.8106,VALID,85,VALID,0.349219,
2011-01-30, 01:57:04,VALID,1000.14,VALID,0,VALID,93.2797,VALID,0,VALID,21.8106,VALID,85,VALID,0.162109,
2011-01-30, 01:58:04,VALID,1000.12,VALID,0,VALID,93.2874,VALID,0,VALID,21.8106,VALID,85,VALID,0.100391,
2011-01-30, 01:59:04,VALID,1000.08,VALID,0,VALID,93.295,VALID,0,VALID,21.809,VALID,85,VALID,0.604297,
2011-01-30, 02:00:04,VALID,1000.06,VALID,0,VALID,93.3103,VALID,0,VALID,21.8496,VALID,85,VALID,0.307813,
2011-01-30, 02:01:04,VALID,1000.07,VALID,0,VALID,93.3026,VALID,0,VALID,21.8285,VALID,107,VALID,0.464844,
2011-01-30, 02:02:04,VALID,1000.05,VALID,0,VALID,93.295,VALID,0,VALID,21.8692,VALID,107,VALID,0.537109,
2011-01-30, 02:03:04,VALID,1000.03,VALID,0,VALID,93.295,VALID,0,VALID,21.848,VALID,107,VALID,0.205469,
2011-01-30, 02:04:04,VALID,1000.03,VALID,0,VALID,93.3103,VALID,0,VALID,21.8692,VALID,107,VALID,0.346484,
2011-01-30, 02:05:04,VALID,1000.05,VALID,0,VALID,93.3103,VALID,0,VALID,21.848,VALID,107,VALID,0.404687,
2011-01-30, 02:06:04,VALID,1000.01,VALID,0,VALID,93.3103,VALID,0,VALID,21.8496,VALID,107,VALID,0.436328,
2011-01-30, 02:07:04,VALID,1000,VALID,0,VALID,93.3255,VALID,0,VALID,21.8496,VALID,107,VALID,0.15,
2011-01-30, 02:08:04,VALID,1000,VALID,0,VALID,93.3331,VALID,0,VALID,21.848,VALID,107,VALID,0.348828,
2011-01-30, 02:09:04,VALID,1000,VALID,0.5,VALID,93.3255,VALID,0,VALID,21.8692,VALID,107,VALID,0.605469,
2011-01-30, 02:10:04,VALID,999.976,VALID,0,VALID,93.3255,VALID,0,VALID,21.8675,VALID,107,VALID,0.519531,
2011-01-30, 02:11:04,VALID,999.937,VALID,0,VALID,93.356,VALID,0,VALID,21.8675,VALID,107,VALID,0.675,
2011-01-30, 02:12:04,VALID,999.93,VALID,0,VALID,93.3408,VALID,0.112286,VALID,21.8853,VALID,107,VALID,0.546094,
2011-01-30, 02:13:04,VALID,999.945,VALID,0,VALID,93.3408,VALID,0.112286,VALID,21.9065,VALID,107,VALID,0.333203,
2011-01-30, 02:14:04,VALID,999.929,VALID,0,VALID,93.3331,VALID,0.112286,VALID,21.9048,VALID,107,VALID,0.361328,
2011-01-30, 02:15:04,VALID,999.927,VALID,0,VALID,93.356,VALID,0,VALID,21.9048,VALID,107,VALID,0.13125,
2011-01-30, 02:16:04,VALID,999.876,VALID,0,VALID,93.356,VALID,0.112286,VALID,21.9048,VALID,107,VALID,0.171484,
2011-01-30, 02:17:04,VALID,999.859,VALID,0,VALID,93.3789,VALID,0.112286,VALID,21.9065,VALID,107,VALID,0.228125,
2011-01-30, 02:18:04,VALID,999.854,VALID,0,VALID,93.3713,VALID,0,VALID,21.8853,VALID,107,VALID,0.534375,
2011-01-30, 02:19:04,VALID,999.828,VALID,0,VALID,93.3637,VALID,0.112286,VALID,21.9065,VALID,107,VALID,0.614062,
2011-01-30, 02:20:04,VALID,999.809,VALID,0,VALID,93.3637,VALID,0.112286,VALID,21.9065,VALID,107,VALID,0.253906,
2011-01-30, 02:21:04,VALID,999.802,VALID,0.5,VALID,93.3713,VALID,0.112286,VALID,21.8853,VALID,107,VALID,0.397656,
2011-01-30, 02:22:04,VALID,999.809,VALID,0,VALID,93.3713,VALID,0.112286,VALID,21.9048,VALID,107,VALID,0.0496094,
2011-01-30, 02:23:04,VALID,999.784,VALID,0,VALID,93.3866,VALID,0,VALID,21.9065,VALID,107,VALID,0.185547,
2011-01-30, 02:24:04,VALID,999.785,VALID,0,VALID,93.4018,VALID,0,VALID,21.9065,VALID,107,VALID,0.159766,
2011-01-30, 02:25:04,VALID,999.789,VALID,0,VALID,93.3942,VALID,0,VALID,21.8853,VALID,107,VALID,0.01875,
2011-01-30, 02:26:04,VALID,999.752,VALID,0,VALID,93.4018,VALID,0,VALID,21.9065,VALID,107,VALID,0,
2011-01-30, 02:27:04,VALID,999.732,VALID,0,VALID,93.4094,VALID,0,VALID,21.887,VALID,107,VALID,0,
2011-01-30, 02:28:04,VALID,999.719,VALID,0,VALID,93.4171,VALID,0,VALID,21.8675,VALID,107,VALID,0,
2011-01-30, 02:29:04,VALID,999.733,VALID,0,VALID,93.4018,VALID,0,VALID,21.8675,VALID,107,VALID,0,
2011-01-30, 02:30:04,VALID,999.714,VALID,0,VALID,93.4018,VALID,0,VALID,21.8692,VALID,107,VALID,0.270703,
2011-01-30, 02:31:04,VALID,999.694,VALID,0.5,VALID,93.4171,VALID,0,VALID,21.8692,VALID,107,VALID,0.366797,
2011-01-30, 02:32:04,VALID,999.699,VALID,0,VALID,93.4171,VALID,0,VALID,21.8675,VALID,107,VALID,0.395312,
2011-01-30, 02:33:04,VALID,999.676,VALID,0,VALID,93.4094,VALID,0,VALID,21.8675,VALID,107,VALID,0.515234,
2011-01-30, 02:34:04,VALID,999.681,VALID,0,VALID,93.4171,VALID,0,VALID,21.8887,VALID,107,VALID,0.448828,
2011-01-30, 02:35:04,VALID,999.636,VALID,0,VALID,93.4247,VALID,0,VALID,21.848,VALID,107,VALID,0.466797,
2011-01-30, 02:36:04,VALID,999.626,VALID,0,VALID,93.4171,VALID,0,VALID,21.848,VALID,107,VALID,0.505078,
2011-01-30, 02:37:04,VALID,999.628,VALID,0,VALID,93.4247,VALID,0,VALID,21.8285,VALID,107,VALID,0.378516,
2011-01-30, 02:38:04,VALID,999.644,VALID,0,VALID,93.4552,VALID,0,VALID,21.8285,VALID,107,VALID,0.265234,
2011-01-30, 02:39:04,VALID,999.613,VALID,0,VALID,93.4323,VALID,0,VALID,21.8285,VALID,107,VALID,0.317187,
2011-01-30, 02:40:04,VALID,999.581,VALID,0,VALID,93.4476,VALID,0,VALID,21.8496,VALID,107,VALID,0.335938,
2011-01-30, 02:41:04,VALID,999.568,VALID,0,VALID,93.4476,VALID,0,VALID,21.8301,VALID,107,VALID,0.298438,
2011-01-30, 02:42:04,VALID,999.577,VALID,0.5,VALID,93.44,VALID,0,VALID,21.8496,VALID,107,VALID,0.484375,
2011-01-30, 02:43:04,VALID,999.541,VALID,0,VALID,93.4552,VALID,0,VALID,21.8301,VALID,107,VALID,0.223828,
2011-01-30, 02:44:04,VALID,999.549,VALID,0,VALID,93.4476,VALID,0,VALID,21.809,VALID,107,VALID,0.114453,
2011-01-30, 02:45:04,VALID,999.525,VALID,0,VALID,93.4628,VALID,0,VALID,21.7895,VALID,107,VALID,0.168359,
2011-01-30, 02:46:04,VALID,999.503,VALID,0,VALID,93.4552,VALID,0,VALID,21.8301,VALID,107,VALID,0.360156,
2011-01-30, 02:47:04,VALID,999.492,VALID,0,VALID,93.44,VALID,0,VALID,21.809,VALID,107,VALID,0.628125,
2011-01-30, 02:48:04,VALID,999.494,VALID,0,VALID,93.4705,VALID,0,VALID,21.7895,VALID,107,VALID,0.729297,
2011-01-30, 02:49:04,VALID,999.496,VALID,0,VALID,93.4628,VALID,0,VALID,21.7895,VALID,107,VALID,0.594922,
2011-01-30, 02:50:04,VALID,999.522,VALID,0,VALID,93.4628,VALID,0,VALID,21.8301,VALID,107,VALID,0.2,
2011-01-30, 02:51:04,VALID,999.498,VALID,0,VALID,93.4705,VALID,0,VALID,21.8106,VALID,107,VALID,0.203516,
2011-01-30, 02:52:04,VALID,999.501,VALID,0,VALID,93.4705,VALID,0,VALID,21.7895,VALID,107,VALID,0.0613281,
2011-01-30, 02:53:04,VALID,999.471,VALID,0,VALID,93.4628,VALID,0,VALID,21.809,VALID,107,VALID,0.239063,
2011-01-30, 02:54:04,VALID,999.459,VALID,0,VALID,93.4781,VALID,0,VALID,21.809,VALID,107,VALID,0.302734,
2011-01-30, 02:55:04,VALID,999.486,VALID,0,VALID,93.4781,VALID,0,VALID,21.8301,VALID,107,VALID,0.317969,
2011-01-30, 02:56:04,VALID,999.486,VALID,0,VALID,93.4705,VALID,0,VALID,21.809,VALID,107,VALID,0.31875,
2011-01-30, 02:57:04,VALID,999.479,VALID,0,VALID,93.4934,VALID,0,VALID,21.8301,VALID,107,VALID,0.280078,
2011-01-30, 02:58:04,VALID,999.457,VALID,0,VALID,93.4781,VALID,0,VALID,21.8301,VALID,107,VALID,0.380469,
2011-01-30, 02:59:04,VALID,999.455,VALID,0,VALID,93.4857,VALID,0,VALID,21.8301,VALID,107,VALID,0,
2011-01-30, 03:00:04,VALID,999.401,VALID,0,VALID,93.4705,VALID,0,VALID,21.8285,VALID,107,VALID,0.147656,
2011-01-30, 03:01:04,VALID,999.397,VALID,0,VALID,93.4705,VALID,0,VALID,21.8496,VALID,107,VALID,0.168359,
2011-01-30, 03:02:04,VALID,999.37,VALID,0,VALID,93.4934,VALID,0,VALID,21.8285,VALID,107,VALID,0.235156,
2011-01-30, 03:03:04,VALID,999.358,VALID,0,VALID,93.4781,VALID,0,VALID,21.8285,VALID,107,VALID,0.306641,
2011-01-30, 03:04:04,VALID,999.348,VALID,0,VALID,93.5086,VALID,0,VALID,21.8496,VALID,107,VALID,0.382031,
2011-01-30, 03:05:04,VALID,999.335,VALID,0,VALID,93.5163,VALID,0,VALID,21.8496,VALID,107,VALID,0.462109,
2011-01-30, 03:06:04,VALID,999.336,VALID,0.5,VALID,93.5086,VALID,0,VALID,21.809,VALID,107,VALID,0.646484,
2011-01-30, 03:07:04,VALID,999.332,VALID,0,VALID,93.5086,VALID,0,VALID,21.8496,VALID,107,VALID,0.867188,
2011-01-30, 03:08:04,VALID,999.343,VALID,0,VALID,93.4552,VALID,0,VALID,21.8692,VALID,107,VALID,0.771094,
2011-01-30, 03:09:04,VALID,999.356,VALID,0,VALID,93.4857,VALID,0,VALID,21.848,VALID,107,VALID,0.713281,
2011-01-30, 03:10:04,VALID,999.339,VALID,0,VALID,93.501,VALID,0,VALID,21.8675,VALID,107,VALID,0.508203,
2011-01-30, 03:11:04,VALID,999.339,VALID,0,VALID,93.5086,VALID,0,VALID,21.887,VALID,107,VALID,0.382813,
2011-01-30, 03:12:04,VALID,999.336,VALID,0,VALID,93.501,VALID,0,VALID,21.9065,VALID,104,VALID,0.807813,
2011-01-30, 03:13:04,VALID,999.322,VALID,0,VALID,93.4857,VALID,0,VALID,21.926,VALID,98,VALID,0.707422,
2011-01-30, 03:14:04,VALID,999.314,VALID,0,VALID,93.4934,VALID,0,VALID,21.9472,VALID,89,VALID,0.838281,
2011-01-30, 03:15:04,VALID,999.299,VALID,0,VALID,93.4857,VALID,0,VALID,21.9667,VALID,89,VALID,0.934375,
2011-01-30, 03:16:04,VALID,999.289,VALID,0,VALID,93.4934,VALID,0,VALID,21.9455,VALID,79,VALID,1.06289,
2011-01-30, 03:17:04,VALID,999.31,VALID,0,VALID,93.4857,VALID,0,VALID,21.9455,VALID,68,VALID,0.765625,
2011-01-30, 03:18:04,VALID,999.32,VALID,0,VALID,93.4857,VALID,0,VALID,21.9455,VALID,61,VALID,0.701953,
2011-01-30, 03:19:04,VALID,999.299,VALID,0,VALID,93.5239,VALID,0,VALID,21.9667,VALID,57,VALID,0.779297,
2011-01-30, 03:20:04,VALID,999.298,VALID,0,VALID,93.501,VALID,0,VALID,21.9667,VALID,57,VALID,0.597266,
2011-01-30, 03:21:04,VALID,999.285,VALID,0,VALID,93.5086,VALID,0,VALID,21.9862,VALID,57,VALID,0.601953,
2011-01-30, 03:22:04,VALID,999.301,VALID,0,VALID,93.501,VALID,0,VALID,21.9845,VALID,57,VALID,1.19336,
2011-01-30, 03:23:04,VALID,999.277,VALID,0,VALID,93.5163,VALID,0,VALID,22.0252,VALID,57,VALID,1.08633,
2011-01-30, 03:24:04,VALID,999.268,VALID,0,VALID,93.5086,VALID,0,VALID,22.0235,VALID,60,VALID,1.04883,
2011-01-30, 03:25:04,VALID,999.286,VALID,0,VALID,93.4857,VALID,0,VALID,22.0642,VALID,71,VALID,0.792188,
2011-01-30, 03:26:04,VALID,999.268,VALID,0,VALID,93.4934,VALID,0,VALID,22.0642,VALID,73,VALID,1.10508,
2011-01-30, 03:27:04,VALID,999.276,VALID,0,VALID,93.5086,VALID,0,VALID,22.1015,VALID,73,VALID,1.20781,
2011-01-30, 03:28:04,VALID,999.287,VALID,0,VALID,93.4857,VALID,0,VALID,22.082,VALID,62,VALID,1.01211,
2011-01-30, 03:29:04,VALID,999.286,VALID,0,VALID,93.4934,VALID,0,VALID,22.1015,VALID,70,VALID,1.20234,
2011-01-30, 03:30:04,VALID,999.3,VALID,0,VALID,93.501,VALID,0.112286,VALID,22.0998,VALID,72,VALID,1.57148,
2011-01-30, 03:31:04,VALID,999.287,VALID,0,VALID,93.501,VALID,0,VALID,22.121,VALID,81,VALID,1.23281,
2011-01-30, 03:32:04,VALID,999.31,VALID,0,VALID,93.4857,VALID,0,VALID,22.1194,VALID,88,VALID,1.16914,
2011-01-30, 03:33:04,VALID,999.304,VALID,0,VALID,93.4857,VALID,0,VALID,22.1389,VALID,89,VALID,0.697656,
2011-01-30, 03:34:04,VALID,999.272,VALID,0,VALID,93.4857,VALID,0.112286,VALID,22.16,VALID,104,VALID,1.00859,
2011-01-30, 03:35:04,VALID,999.274,VALID,0,VALID,93.4781,VALID,0,VALID,22.1795,VALID,96,VALID,0.767187,
2011-01-30, 03:36:04,VALID,999.288,VALID,0,VALID,93.4934,VALID,0,VALID,22.1795,VALID,109,VALID,1.18555,
2011-01-30, 03:37:04,VALID,999.241,VALID,0,VALID,93.4781,VALID,0.112286,VALID,22.199,VALID,112,VALID,1.25664,
2011-01-30, 03:38:04,VALID,999.245,VALID,0,VALID,93.501,VALID,0,VALID,22.2186,VALID,108,VALID,0.975781,
2011-01-30, 03:39:04,VALID,999.241,VALID,0,VALID,93.4628,VALID,0,VALID,22.2381,VALID,108,VALID,0.586328,
2011-01-30, 03:40:04,VALID,999.227,VALID,0,VALID,93.4781,VALID,0,VALID,22.2381,VALID,103,VALID,0.926562,
2011-01-30, 03:41:04,VALID,999.239,VALID,0,VALID,93.4476,VALID,0,VALID,22.2576,VALID,108,VALID,0.894531,
2011-01-30, 03:42:04,VALID,999.222,VALID,0,VALID,93.4781,VALID,0,VALID,22.2771,VALID,112,VALID,0.585938,
2011-01-30, 03:43:04,VALID,999.228,VALID,0,VALID,93.4628,VALID,0.112286,VALID,22.2966,VALID,112,VALID,0.528906,
2011-01-30, 03:44:04,VALID,999.212,VALID,0,VALID,93.4705,VALID,0,VALID,22.2966,VALID,112,VALID,0.357812,
2011-01-30, 03:45:04,VALID,999.19,VALID,0,VALID,93.4705,VALID,0,VALID,22.2949,VALID,105,VALID,0.685156,